Tracking 26933 objects as of 5-Feb-2023
HD Live streaming from Space Station
objects crossing your sky now

ORBCOMM FM 103

Track ORBCOMM FM 103 now!
10-day predictions
ORBCOMM FM 103 is classified as:


NORAD ID: 40091
Int'l Code: 2014-040F
Perigee: 713.2 km
Apogee: 717.4 km
Inclination: 47.0 °
Period: 98.9 minutes
Semi major axis: 7086 km
RCS: Unknown
Launch date: July 14, 2014
Source: United States (US)
Launch site: AIR FORCE EASTERN TEST RANGE (AFETR)
Your satellite tracking list
Your tracking list is empty




NASA's NSSDC Master Catalog

Two Line Element Set (TLE):
1 40091U 14040F   23036.57864934  .00000760  00000-0  21139-3 0  9995
2 40091  47.0063 121.5450 0002934 277.4947  82.5604 14.55377884455407
Source of the keplerian elements: AFSPC